Simultaneous Nadir Overpasses (SNOs) Predictions

Prediction of SNOs between LANDSAT-8 and METOP-B Satellite Orbit:

Table of predicted SNOs for the next 14.0 days since TLE Epoch: 4/17/2015
Index Date (LANDSAT-8) Time (LANDSAT-8) Lat,Lon (LANDSAT-8) SZA (LANDSAT-8 ) Date (METOP-B) Time (METOP-B) Lat,Lon (METOP-B) SZA (METOP-B ) Distance(km) Time Diff (sec)
1 04/18/2015 02:28:02 81.03,-179.07 72.29 04/18/2015 02:27:45 81.04,-179.08 72.29 0.17 17
2 04/18/2015 03:17:28 -81.06, -11.13 107.68 04/18/2015 03:18:25 -81.06, -11.27 107.67 2.46 57
3 04/20/2015 22:02:16 81.05,-112.36 71.38 04/20/2015 22:02:06 81.06,-112.19 71.40 2.90 10
4 04/20/2015 22:51:42 -81.08, 55.61 108.58 04/20/2015 22:52:46 -81.07, 55.64 108.56 0.62 64
5 04/23/2015 16:47:49 -79.65, 132.50 111.98 04/23/2015 16:46:35 -80.00, 131.08 111.79 47.68 74
6
